Dave Cama

スカウト - Rewa
23 10月 2027
土曜日
処理

性格

適応力 (10) 野心 (9) 物議 (15) 忠誠心 (15) プレッシャー耐性 (3) プロ意識 (6) スポーツマンシップ (15) 気質 (11)

プロフィール

指導スタイル 民主型
ライセンス 国内B級
決断力 7
人材管理 4
モチベーション 2
規律 7
仕事満足度
78%
疲労度
0%
役職 スカウト
給与 13.9K 週給
契約 14.03.2030

パフォーマンス

態度 良い
トレーニング効果
13%
選手育成
35%
怪我予防
30%
戦術実行
20%

最近の出来事

選手を視察 たった今
補強会議に出席 たった今
選手を視察 たった今
選手を視察 7日前
選手を視察 7日前
選手を視察 7日前
選手を視察 7日前
選手を視察 7日前

監視中

439
選手 クラブ 状態 能力 自信 視察済み 最終確認 最新投票
Abel Argañaraz Gimnasia y Esgrima アクティブ 100 / 85 40% 4 21.10.2027 -
Tomás Assennato All Boys アクティブ 95 / 102 40% 1 21.10.2027 -
Valentín Dutruel Racing アクティブ 91 / 78 40% 2 20.10.2027 -
Cristian Lora Leones アクティブ 96 / 98 40% 1 20.10.2027 -
James Nieuwenhuizen Melbourne City アクティブ 71 / 97 40% 2 19.10.2027 -
Santiago Nogales Gimnasia y Tiro アクティブ 98 / 101 40% 3 19.10.2027 -
Lucas Rodríguez Uruguay Montevideo アクティブ 108 / 95 40% 3 18.10.2027 -
Mario Briceño Huachipato アクティブ 81 / 90 40% 1 18.10.2027 -
Nicolás Molina Temperley アクティブ 112 / 119 40% 2 17.10.2027 -
Carlos Ramírez Zulia アクティブ 111 / 98 40% 2 17.10.2027 -
Mateo Pereyra Tacuarembo アクティブ 96 / 80 40% 4 15.10.2027 -
Lautaro Bursich Talleres アクティブ 114 / 107 40% 3 15.10.2027 -
Mauro Peinipil Colón アクティブ 102 / 118 40% 1 15.10.2027 -
Juan David Lázaro Real Santander アクティブ 103 / 108 40% 1 15.10.2027 -
Lucas Ruiz Ferro Carril Oeste アクティブ 98 / 109 40% 4 13.10.2027 -
Lisandro Musso Central Córdoba SdE アクティブ 87 / 83 40% 2 13.10.2027 -
Gonzalo Gutiérrez San Martín アクティブ 94 / 85 40% 4 12.10.2027 -
Emiliano Zambrano Gimnasia y Esgrima アクティブ 96 / 103 40% 1 12.10.2027 -
Javier Bustillos Los Andes アクティブ 88 / 98 40% 6 10.10.2027 -
Nicolás Moreno San Martín アクティブ 89 / 107 40% 2 10.10.2027 -
Axel Afonso Atlético Tucumán アクティブ 87 / 91 40% 1 10.10.2027 -
Ignacio Giacinti Patronato アクティブ 84 / 91 40% 1 10.10.2027 -
Mauricio Lacerda Miramar Misiones アクティブ 100 / 71 40% 2 09.10.2027 -
Joaquín Mendive Tristán Suárez アクティブ 118 / 97 40% 4 08.10.2027 -
Rafael Hornos Liverpool Montevideo アクティブ 110 / 79 40% 2 08.10.2027 -
Carlos Torres Once Caldas アクティブ 115 / 95 40% 1 08.10.2027 -
Brian Mancini Rampla Juniors アクティブ 86 / 88 40% 3 07.10.2027 -
Alex Robinson Macarthur FC アクティブ 73 / 98 40% 3 06.10.2027 -
Juan Jaime San Martín アクティブ 114 / 82 40% 2 06.10.2027 -
Román Albornoz Temperley アクティブ 74 / 101 40% 1 06.10.2027 -
Tobias Canale Almagro アクティブ 98 / 101 40% 1 06.10.2027 -
Sebastián Mella Huachipato アクティブ 88 / 121 40% 2 04.10.2027 -
Facundo Techera Uruguay Montevideo アクティブ 99 / 106 40% 2 04.10.2027 -
Gianluca Banuera Tristán Suárez アクティブ 89 / 114 40% 1 04.10.2027 -
Jack Warshawsky Melbourne Victory アクティブ 106 / 111 40% 3 03.10.2027 -
Italo Espinoza San Martín アクティブ 102 / 121 40% 2 03.10.2027 -
Tomás López River Plate アクティブ 88 / 83 40% 1 03.10.2027 -
Federico Pérez Agropecuario Argentino アクティブ 103 / 136 40% 1 03.10.2027 -
Luca Duarte Arsenal アクティブ 91 / 91 40% 1 03.10.2027 -
Augusto Alcorcel Colegiales アクティブ 114 / 109 40% 4 29.09.2027 -
Nahuel Manganelli San Martín アクティブ 94 / 99 40% 2 29.09.2027 -
Braian Rivero Atlanta アクティブ 124 / 95 40% 2 28.09.2027 -
Caxambu Borneo アクティブ 98 / 85 40% 1 28.09.2027 -
Diky Indrayana Madura United アクティブ 62 / 79 40% 1 27.09.2027 -
Rodrigo Fumo Estudiantes アクティブ 70 / 76 40% 2 26.09.2027 -
Mateo Muñoz Talleres アクティブ 90 / 114 40% 2 24.09.2027 -
Nehemías Rodríguez Atenas アクティブ 88 / 73 40% 1 24.09.2027 -
Gali Balanta Deportes Tolima アクティブ 100 / 113 40% 2 23.09.2027 -
Theo Numberi Dewa United アクティブ 47 / 57 40% 2 23.09.2027 -
Julián Ledesma Arsenal アクティブ 104 / 88 40% 2 23.09.2027 -
Tiago Libares All Boys アクティブ 87 / 119 40% 3 22.09.2027 -
Esteban Buitrago Valledupar アクティブ 111 / 112 40% 3 21.09.2027 -
Alfredo Mendoza Zulia アクティブ 99 / 109 40% 2 21.09.2027 -
Luciano Paredes Maipú アクティブ 84 / 116 40% 4 19.09.2027 -
Carlos Cabezas Depor アクティブ 73 / 105 40% 4 18.09.2027 -
Juan Sebastián Sarmiento Patriotas アクティブ 69 / 93 40% 1 16.09.2027 -
Ángel Maciel Tacuarembo アクティブ 110 / 107 40% 1 15.09.2027 -
Joaquín Camejo River Plate アクティブ 104 / 80 40% 2 14.09.2027 -
Rodrigo Monserrat Colegiales アクティブ 92 / 101 40% 1 14.09.2027 -
Eugenio Olivera Talleres アクティブ 113 / 109 40% 3 13.09.2027 -
Febri Hariyadi Persis アクティブ 96 / 85 40% 1 13.09.2027 -
Federico Acosta Miramar Misiones アクティブ 98 / 120 40% 1 13.09.2027 -
Joe Wallis Western Sydney Wanderers アクティブ 101 / 85 40% 2 11.09.2027 -
Christian Bravo Huachipato アクティブ 105 / 83 40% 1 11.09.2027 -
Ulises Vera Quilmes アクティブ 121 / 106 40% 2 10.09.2027 -
Ariel Castellano Alvarado アクティブ 80 / 120 40% 3 09.09.2027 -
Tiago Taobas Central Norte アクティブ 94 / 94 40% 1 09.09.2027 -
Sergio Carrasco Cobresal アクティブ 67 / 78 40% 4 08.09.2027 -
Agustín Páez Maipú アクティブ 96 / 86 40% 1 08.09.2027 -
Juan Cruz Zurbriggen San Telmo アクティブ 114 / 92 40% 2 07.09.2027 -
Íker Blanco Independiente Medellin アクティブ 97 / 89 40% 2 06.09.2027 -
Manuel Muzzio Estudiantes アクティブ 106 / 96 40% 2 06.09.2027 -
Anthony da Costa Artigas アクティブ 87 / 98 40% 3 06.09.2027 -
Harlan Suardi PSIM アクティブ 86 / 55 40% 2 06.09.2027 -
Franco Rivasseau Patronato アクティブ 86 / 92 40% 7 03.09.2027 -
Juan Felipe Hincapié Tigres アクティブ 66 / 81 40% 1 03.09.2027 -
Lucas Richarte Temperley アクティブ 106 / 118 40% 5 02.09.2027 -
Franco García Ferro Carril Oeste アクティブ 119 / 117 40% 3 02.09.2027 -
Joela Biuvanua Lautoka アクティブ 55 / 54 40% 2 02.09.2027 -
Emiliano Bermúdez Oriental アクティブ 92 / 99 40% 2 02.09.2027 -
Nicolás Toloza Colegiales アクティブ 116 / 90 40% 1 02.09.2027 -
Agustín da Rocha Cerrito アクティブ 101 / 90 40% 1 31.08.2027 -
Rodrigo Russo Vélez アクティブ 105 / 98 40% 1 29.08.2027 -
Luis Yanes Real Cartagena アクティブ 109 / 88 40% 5 28.08.2027 -
Darío Pereira Fenix アクティブ 111 / 100 40% 1 28.08.2027 -
Joel Abraham Boston River アクティブ 97 / 110 40% 2 27.08.2027 -
Cameron Cook Perth Glory アクティブ 107 / 109 40% 1 27.08.2027 -
Cristian Peñate Barranquilla アクティブ 74 / 82 40% 1 24.08.2027 -
Thiago Yfran Temperley アクティブ 90 / 92 40% 1 20.08.2027 -
Matías Mansilla Alvarado アクティブ 124 / 103 40% 2 17.08.2027 -
Joaquín Tonet Defensores アクティブ 88 / 87 40% 1 17.08.2027 -
Román Gutiérrez Albion アクティブ 94 / 113 40% 3 13.08.2027 -
Fabricio Hass Central Norte アクティブ 126 / 87 40% 1 11.08.2027 -
Francisco Coirolo Atenas アクティブ 102 / 118 40% 3 10.08.2027 -
Juan Romero Tristán Suárez アクティブ 87 / 102 40% 1 10.08.2027 -
Michel Silveira Rentistas アクティブ 113 / 94 40% 1 08.08.2027 -
Frets Butuan Maluku Utara United アクティブ 65 / 87 40% 1 08.08.2027 -
James Hilton Macarthur FC アクティブ 74 / 75 40% 2 07.08.2027 -
Alex Payares Patriotas アクティブ 75 / 89 40% 2 07.08.2027 -
Edwin Hormaza Depor アクティブ 80 / 98 40% 1 06.08.2027 -
Joaquín Gottesman La Luz アクティブ 86 / 98 40% 1 06.08.2027 -
Nicolás Forastiero Deportivo Maldonado アクティブ 80 / 113 40% 1 04.08.2027 -
Lukas González Cerro Largo アクティブ 68 / 83 40% 1 04.08.2027 -
Matías Escobar San Miguel アクティブ 85 / 97 40% 2 03.08.2027 -
Sergio Otero Llaneros アクティブ 92 / 93 40% 1 01.08.2027 -
Marcelo Miño Ferro Carril Oeste アクティブ 108 / 127 40% 1 31.07.2027 -
Mack Cleberson Murillo Tigres アクティブ 76 / 87 40% 1 31.07.2027 -
Matías García San Martín アクティブ 110 / 125 40% 6 30.07.2027 -
Alan Brítez Union La Calera アクティブ 86 / 105 40% 1 30.07.2027 -
Tiago Benzi Belgrano アクティブ 112 / 120 40% 2 29.07.2027 -
Juan Ignacio Dupont Central Espanol アクティブ 111 / 86 40% 3 25.07.2027 -
Gustavo Méndez Arsenal アクティブ 83 / 107 40% 2 25.07.2027 -
David Fernández Unión de Santa Fe アクティブ 90 / 105 40% 1 24.07.2027 -
Or Yitzhak Bnei Yehuda アクティブ 58 / 100 40% 1 22.07.2027 -
Matías Caballero Patronato アクティブ 78 / 110 40% 1 21.07.2027 -
Santiago Rodríguez Fenix アクティブ 88 / 95 40% 1 21.07.2027 -
Ian López Tacuarembo アクティブ 93 / 76 40% 1 20.07.2027 -
Daniel Sanchez Universitario Popayan アクティブ 72 / 90 40% 1 20.07.2027 -
Matías Canedo Rampla Juniors アクティブ 104 / 80 40% 1 20.07.2027 -
Alexander Pastene Union La Calera アクティブ 83 / 84 40% 2 15.07.2027 -
Leonardo Felissia Central Norte アクティブ 85 / 84 40% 1 15.07.2027 -
Liberato Payne Waitakere United アクティブ 81 / 69 40% 2 14.07.2027 -
Manuel Guanini Gimnasia y Tiro アクティブ 113 / 101 40% 2 13.07.2027 -
Matías Benítez San Miguel アクティブ 84 / 89 40% 1 12.07.2027 -
Valentín Matlis San Telmo アクティブ 114 / 86 40% 2 11.07.2027 -
César Leguizamón River Plate アクティブ 77 / 90 40% 1 11.07.2027 -
Nelson Guaiquil Huachipato アクティブ 79 / 78 40% 1 10.07.2027 -
Iván Barbona Colón アクティブ 105 / 85 40% 4 09.07.2027 -
Felipe Ordoñez Deportivo Pasto アクティブ 115 / 113 40% 1 09.07.2027 -
Lautaro Daus Defensores アクティブ 99 / 78 40% 1 09.07.2027 -
Juan Álvarez Argentinos Juniors アクティブ 90 / 111 40% 1 08.07.2027 -
Joaquín Varela Gimnasia y Esgrima アクティブ 107 / 102 40% 1 07.07.2027 -
Francisco Gualtieri Estudiantes アクティブ 101 / 106 40% 1 06.07.2027 -
Andrés Silveira Rampla Juniors アクティブ 103 / 76 40% 1 06.07.2027 -
Gonzalo Rostagno Racing アクティブ 102 / 102 40% 3 05.07.2027 -
Alexis Sinisterra Deportes Quindio アクティブ 92 / 70 40% 1 03.07.2027 -
Joe Knowles Auckland FC アクティブ 92 / 79 40% 1 03.07.2027 -
Ali Mekawir Navua アクティブ 61 / 69 40% 3 02.07.2027 -
Martín Vallejos Quilmes アクティブ 121 / 91 40% 1 02.07.2027 -
Javier Rangel Alianza Petrolera アクティブ 59 / 81 40% 1 01.07.2027 -
Kavian Rahmani Melbourne City アクティブ 80 / 82 40% 1 30.06.2027 -
Galo Vijande Rosario Central アクティブ 93 / 79 40% 1 27.06.2027 -
Lukas Kelly-Heald Wellington Phoenix アクティブ 109 / 91 40% 1 26.06.2027 -
Guillermo Rodríguez San Martín アクティブ 129 / 117 40% 3 25.06.2027 -
Henry Blackledge Western Sydney Wanderers アクティブ 57 / 78 40% 2 24.06.2027 -
Nicolás Queiroz Wanderers アクティブ 107 / 93 40% 1 24.06.2027 -
Sotiri Phillis Adelaide United アクティブ 101 / 89 40% 6 23.06.2027 -
Santiago Chamorro Almagro アクティブ 90 / 94 40% 1 23.06.2027 -
Inti Borghetto Patronato アクティブ 70 / 78 40% 1 22.06.2027 -
Lautaro César Talleres アクティブ 90 / 94 40% 1 22.06.2027 -
Agustín Bindella Quilmes アクティブ 90 / 100 40% 1 21.06.2027 -
Benjamín Rivera Universitario Popayan アクティブ 83 / 74 40% 1 21.06.2027 -
Adama Coulibaly Perth Glory アクティブ 97 / 93 40% 3 20.06.2027 -
Agustín Mieres Atlanta アクティブ 88 / 101 40% 4 17.06.2027 -
Ulíses López Barracas Central アクティブ 89 / 110 40% 1 17.06.2027 -
Lautaro Brienzo Arsenal アクティブ 88 / 120 40% 1 16.06.2027 -
Riley Foxe Perth Glory アクティブ 91 / 104 40% 1 16.06.2027 -
Iván Spoljaric Cesar Vallejo アクティブ 100 / 71 40% 2 15.06.2027 -
Rodrigo Ruiz Oriental アクティブ 92 / 93 40% 1 13.06.2027 -
Wataru Kamijo Sydney FC アクティブ 73 / 95 40% 8 11.06.2027 -
Thiago D'Archivio Alvarado アクティブ 88 / 82 40% 1 11.06.2027 -
Fabian Talladira Adelaide United アクティブ 76 / 82 40% 3 10.06.2027 -
Samuel Posada Leones アクティブ 63 / 70 40% 1 10.06.2027 -
Oscar Page Brisbane Roar アクティブ 80 / 87 40% 3 08.06.2027 -
Alejandro Amaya Patriotas アクティブ 106 / 95 40% 1 08.06.2027 -
Will McKay Macarthur FC アクティブ 83 / 70 40% 2 03.06.2027 -
Emanuel Bonda Argentinos Juniors アクティブ 77 / 84 40% 2 01.06.2027 -
Jesús Mejía Real Santander アクティブ 103 / 109 40% 1 01.06.2027 -
Ryan Kalms Melbourne City アクティブ 71 / 72 40% 1 29.05.2027 -
José Arbío River Plate アクティブ 104 / 87 40% 1 27.05.2027 -
Ramiro Fernández Almirante Brown アクティブ 100 / 124 40% 3 25.05.2027 -
Santiago García Ferro Carril Oeste アクティブ 111 / 101 40% 1 25.05.2027 -
Devan Tanton Jaguares アクティブ 87 / 107 40% 1 25.05.2027 -
Federico Montiel Agropecuario Argentino アクティブ 94 / 83 40% 1 24.05.2027 -
Roger Manríque Fortaleza アクティブ 83 / 84 40% 1 22.05.2027 -
Oliver Randazzo Lautoka アクティブ 55 / 57 40% 1 21.05.2027 -
Riley Dalziell Auckland FC アクティブ 81 / 87 40% 1 21.05.2027 -
Jorge Juárez San Martín アクティブ 104 / 128 40% 1 21.05.2027 -
Claudio Salto Almagro アクティブ 94 / 83 40% 3 20.05.2027 -
Israel Monga Adelaide United アクティブ 85 / 72 40% 2 19.05.2027 -
Joaquín Soria Talleres アクティブ 76 / 94 40% 1 18.05.2027 -
Mateo del Pino Talleres アクティブ 95 / 98 40% 1 18.05.2027 -
Santino Bacciadone Banfield アクティブ 85 / 79 40% 1 17.05.2027 -
Agustín Zapata Alvarado アクティブ 68 / 79 40% 1 16.05.2027 -
Mauricio Jiménez Rosario Central アクティブ 106 / 114 40% 1 14.05.2027 -
Diego Capdevila Cerro アクティブ 110 / 79 40% 1 14.05.2027 -
José Mejía Tigres アクティブ 69 / 81 40% 1 12.05.2027 -
Monty De Vries Southern United アクティブ 93 / 77 40% 4 09.05.2027 -
Iowane Matanisiga Labasa アクティブ 68 / 81 40% 1 09.05.2027 -
Braian Toloza Nueva Chicago アクティブ 90 / 98 40% 1 09.05.2027 -
Aporosa Yada Labasa アクティブ 71 / 52 40% 1 07.05.2027 -
Franco Suárez Defensores Unidos アクティブ 93 / 93 40% 2 06.05.2027 -
Anderson Acevedo Bogota アクティブ 93 / 86 40% 1 06.05.2027 -
Héctor Fertoli Racing Club アクティブ 127 / 101 40% 1 06.05.2027 -
George Plusnin Brisbane Roar アクティブ 82 / 70 40% 2 05.05.2027 -
Valentín Chocobar Chacarita Juniors アクティブ 124 / 120 40% 1 04.05.2027 -
Juan Fernándes Pinto Almagro アクティブ 106 / 97 40% 2 29.04.2027 -
Rodrigo Dinocco San Telmo アクティブ 74 / 99 40% 2 27.04.2027 -
Facundo Infante Talleres アクティブ 109 / 99 40% 2 27.04.2027 -
Claudio Fernández San Marcos de Arica アクティブ 104 / 75 40% 1 27.04.2027 -
Tomás Gallay Colón アクティブ 105 / 97 40% 1 24.04.2027 -
Jerónimo Álvarez Agropecuario Argentino アクティブ 77 / 104 40% 1 24.04.2027 -
Santiago Bellatti Patronato アクティブ 95 / 104 40% 2 22.04.2027 -
Zachary De Jesus Sydney FC アクティブ 89 / 92 40% 5 21.04.2027 -
Valentín Gelos Atlanta アクティブ 80 / 82 40% 1 21.04.2027 -
Anthony Didulica Perth Glory アクティブ 84 / 80 40% 1 18.04.2027 -
Mohammed Alam Lautoka アクティブ 49 / 68 40% 1 17.04.2027 -
Michael Mahecha Deportes Quindio アクティブ 117 / 76 40% 1 16.04.2027 -
Fito Ovalle San Marcos de Arica アクティブ 106 / 106 40% 1 16.04.2027 -
Sergio Román Millonarios アクティブ 97 / 88 40% 2 14.04.2027 -
Joel Bertolissio Newcastle Jets アクティブ 92 / 91 40% 3 14.04.2027 -
Juan Diego Perdomo Depor アクティブ 65 / 103 40% 1 14.04.2027 -
Carlos Gutiérrez Aguilas Doradas アクティブ 85 / 100 40% 1 14.04.2027 -
Santiago Garro Almirante Brown アクティブ 88 / 98 40% 1 14.04.2027 -
Javier Pereyra Nueva Chicago アクティブ 120 / 104 40% 1 12.04.2027 -
Rodrigo Arnay Güemes アクティブ 90 / 86 40% 1 12.04.2027 -
Joaquín Novillo Quilmes アクティブ 99 / 129 40% 2 11.04.2027 -
Steven Ugarkovic Western Sydney Wanderers アクティブ 100 / 95 40% 2 11.04.2027 -
Lucas Zeballos Miramar Misiones アクティブ 61 / 63 40% 1 11.04.2027 -
Alejandro Cardona Leones アクティブ 92 / 71 40% 2 09.04.2027 -
José Quevedo Tigres アクティブ 81 / 106 40% 1 09.04.2027 -
Alex Nassiep Newcastle Jets アクティブ 92 / 99 40% 1 09.04.2027 -
Martín Farías Cerro アクティブ 99 / 85 40% 1 08.04.2027 -
Breinner Román Real Santander アクティブ 93 / 69 40% 1 08.04.2027 -
Julen Ansó Liverpool Montevideo アクティブ 65 / 74 40% 1 07.04.2027 -
Francisco Cuzzani Ferro Carril Oeste アクティブ 94 / 89 40% 3 05.04.2027 -
Jafé Pérez Bogota アクティブ 104 / 97 40% 2 05.04.2027 -
Jhoan Pinto Union Magdalena アクティブ 81 / 107 40% 1 05.04.2027 -
Andrés Schetino Cerrito アクティブ 112 / 118 40% 1 04.04.2027 -
Mateo Bustamante Tristán Suárez アクティブ 84 / 86 40% 1 04.04.2027 -
Sebastián Corda Ferro Carril Oeste アクティブ 128 / 128 40% 1 04.04.2027 -
Brian Blando Agropecuario Argentino アクティブ 113 / 120 40% 1 01.04.2027 -
Gianluca Valdiviezo Colón アクティブ 109 / 109 40% 1 01.04.2027 -
Tiziano Delias Sarmiento アクティブ 82 / 80 40% 1 30.03.2027 -
Lautaro Ávila Racing アクティブ 100 / 93 40% 2 29.03.2027 -
Yan Mosquera Jaguares アクティブ 86 / 113 40% 2 29.03.2027 -
Joaquín Postigo Quilmes アクティブ 125 / 106 40% 1 29.03.2027 -
Nicolas Villa Patriotas アクティブ 100 / 97 40% 1 29.03.2027 -
Nicolás Fernández Tristán Suárez アクティブ 98 / 117 40% 3 26.03.2027 -
Nahuel Denis Gimnasia y Esgrima アクティブ 93 / 88 40% 1 26.03.2027 -
Tobías Mendoza Estudiantes アクティブ 78 / 85 40% 1 25.03.2027 -
Sebastián Miño Patronato アクティブ 72 / 80 40% 1 25.03.2027 -
Gastón Mansilla Maipú アクティブ 119 / 107 40% 1 24.03.2027 -
Stefano Condino All Boys アクティブ 92 / 112 40% 3 23.03.2027 -
Mateo Serra San Miguel アクティブ 115 / 100 40% 1 23.03.2027 -
Richard Nkomo Newcastle Jets アクティブ 56 / 69 40% 2 20.03.2027 -
Enzo Ribeiro River Plate アクティブ 108 / 102 40% 1 20.03.2027 -
Juan Pablo García Atlético Tucumán アクティブ 96 / 90 40% 1 19.03.2027 -
Rodrigo Stocco Temperley アクティブ 68 / 93 40% 2 18.03.2027 -
Gabriel Galeano San Lorenzo アクティブ 73 / 119 40% 1 18.03.2027 -
Regont Murati Auckland City アクティブ 88 / 63 40% 4 17.03.2027 -
Gastón Vega Cerro Largo アクティブ 79 / 73 40% 1 17.03.2027 -
Tomás Silva Lanús アクティブ 95 / 96 40% 1 14.03.2027 -
Jorge Peña Union La Calera アクティブ 75 / 106 40% 2 13.03.2027 -
Adam Bell Auckland City アクティブ 68 / 60 40% 3 07.03.2027 -
Juan David Aguilar Depor アクティブ 67 / 88 40% 1 06.03.2027 -
David Alfaro Racing アクティブ 87 / 97 40% 1 06.03.2027 -
Hernán Carroso Progreso アクティブ 82 / 100 40% 1 02.03.2027 -
Valentín Culasso Talleres アクティブ 103 / 118 40% 1 01.03.2027 -
Santiago Piccioni Patronato アクティブ 114 / 105 40% 1 28.02.2027 -
Elías Machuca Nueva Chicago アクティブ 77 / 121 40% 1 28.02.2027 -
Marco Campagnaro Maipú アクティブ 97 / 110 40% 1 27.02.2027 -
Matt Dench Perth Glory アクティブ 81 / 80 40% 1 27.02.2027 -
Ben van Dorssen Macarthur FC アクティブ 56 / 65 40% 2 26.02.2027 -
Juan Camilo Roa Aguilas Doradas アクティブ 103 / 132 40% 2 26.02.2027 -
Marlon Flórez Jaguares アクティブ 57 / 75 40% 1 26.02.2027 -
Facundo Cruz Independiente アクティブ 96 / 108 40% 1 22.02.2027 -
Kristian Popovic Central Coast Mariners アクティブ 98 / 98 40% 3 18.02.2027 -
Frey Berrio Envigado アクティブ 80 / 107 40% 1 17.02.2027 -
James Durrington Brisbane Roar アクティブ 79 / 96 40% 1 17.02.2027 -
Axel Leiva Independiente Rivadavia アクティブ 86 / 97 40% 1 16.02.2027 -
Giuliano Peralta Racing アクティブ 88 / 101 40% 1 16.02.2027 -
Santiago Videla Iquique アクティブ 104 / 86 40% 1 13.02.2027 -
Mateo Raschia Unión de Santa Fe アクティブ 69 / 117 40% 1 12.02.2027 -
Maximiliano Velazco Belgrano アクティブ 112 / 112 40% 1 11.02.2027 -
Dayron Mosquera Aguilas Doradas アクティブ 83 / 113 40% 1 10.02.2027 -
Nicolás dos Santos River Plate アクティブ 89 / 77 40% 1 09.02.2027 -
Harrison Shillington Melbourne Victory アクティブ 69 / 76 40% 2 07.02.2027 -
Zach Lisolajski Melbourne City アクティブ 79 / 105 40% 1 07.02.2027 -
Franco Almanza Almirante Brown アクティブ 89 / 93 40% 1 05.02.2027 -
Gabriel Ramírez All Boys アクティブ 101 / 106 40% 2 03.02.2027 -
Facundo Lucero Talleres アクティブ 97 / 98 40% 1 03.02.2027 -
Martín Díaz Lanús アクティブ 97 / 94 40% 1 02.02.2027 -
Fabricio Roldán Rentistas アクティブ 90 / 93 40% 1 01.02.2027 -
Iván Cabrera Arsenal アクティブ 96 / 126 40% 1 01.02.2027 -
Vinko Stanisic Brisbane Roar アクティブ 92 / 103 40% 1 31.01.2027 -
Diego Guallama All Boys アクティブ 91 / 89 40% 1 30.01.2027 -
Máximo Tabuchi Cortulua アクティブ 91 / 69 40% 1 30.01.2027 -
Lautaro Busto Almagro アクティブ 77 / 96 40% 1 28.01.2027 -
Daniel Arcos Fortaleza CEIF アクティブ 111 / 107 40% 1 28.01.2027 -
Iván González Morón アクティブ 111 / 112 40% 1 26.01.2027 -
Lucas Barrientos Los Andes アクティブ 84 / 117 40% 1 25.01.2027 -
Valentino Álvarez Banfield アクティブ 72 / 89 40% 2 23.01.2027 -
Lautaro Aranda Independiente Rivadavia アクティブ 86 / 91 40% 1 23.01.2027 -
Hernán Domínguez Nacional アクティブ 68 / 94 40% 1 21.01.2027 -
Tomás Bais Lanús アクティブ 107 / 84 40% 1 21.01.2027 -
Joaquín Fernández River Plate アクティブ 96 / 87 40% 1 20.01.2027 -
Santiago Galli Belgrano アクティブ 77 / 105 40% 1 20.01.2027 -
Tim Singh WaiBOP United アクティブ 57 / 64 40% 2 16.01.2027 -
Ernesto Pontoriero San Telmo アクティブ 81 / 79 40% 1 14.01.2027 -
Lautaro Fernández Alvarado アクティブ 74 / 104 40% 1 14.01.2027 -
Sairusi Nalaubu Lautoka アクティブ 92 / 76 40% 1 14.01.2027 -
Rodrigo Sosa Atlanta アクティブ 117 / 99 40% 1 13.01.2027 -
Nicolás Borsotti Defensores アクティブ 72 / 95 40% 1 12.01.2027 -
Axel Páez Los Andes アクティブ 83 / 85 40% 1 11.01.2027 -
Oliver Dragićević Melbourne Victory アクティブ 87 / 90 40% 1 10.01.2027 -
Ayrton Sánchez Tristán Suárez アクティブ 126 / 89 40% 1 09.01.2027 -
Agustín Albrini Independiente Rivadavia アクティブ 108 / 97 40% 1 01.01.2027 -
Carlos Hernández Deportivo Riestra アクティブ 93 / 109 40% 1 01.01.2027 -
Nicolás Ruiz Paz Mitre アクティブ 93 / 78 40% 1 31.12.2026 -
Teo Merlo Mitre アクティブ 64 / 62 40% 1 31.12.2026 -
Diego Pavia Barracas Central アクティブ 112 / 122 40% 2 30.12.2026 -
Juan Farías Defensores Unidos アクティブ 98 / 101 40% 1 29.12.2026 -
Lautaro Espeche Instituto アクティブ 93 / 98 40% 2 26.12.2026 -
José Sanhueza Universidad de Concepcion アクティブ 66 / 97 40% 1 25.12.2026 -
Thomas Carosio San Miguel アクティブ 89 / 112 40% 1 25.12.2026 -
Jordan Vale Suva アクティブ 87 / 74 40% 1 25.12.2026 -
Román Herrera Atlanta アクティブ 85 / 84 40% 1 23.12.2026 -
Santino Colangelo Almagro アクティブ 97 / 98 40% 1 23.12.2026 -
Ezequiel Moya Chacarita Juniors アクティブ 86 / 95 40% 1 21.12.2026 -
Matías Zorzoli Newell's Old Boys アクティブ 86 / 113 40% 2 20.12.2026 -
Noah McCann Central Coast Mariners アクティブ 74 / 71 40% 1 20.12.2026 -
Diego Bolaños Argentinos Juniors アクティブ 63 / 77 40% 1 20.12.2026 -
Emanuel Díaz Racing アクティブ 99 / 86 40% 2 17.12.2026 -
Facundo Parada Racing アクティブ 124 / 79 40% 1 17.12.2026 -
Alfonso Álvarez Ferro Carril Oeste アクティブ 113 / 86 40% 1 16.12.2026 -
Tomás Núñez Estudiantes アクティブ 101 / 115 40% 1 12.12.2026 -
Braian Cabral Madryn アクティブ 77 / 109 40% 1 12.12.2026 -
Juan Bosca Racing アクティブ 79 / 108 40% 1 11.12.2026 -
José Cabrera Union Magdalena アクティブ 66 / 82 40% 1 11.12.2026 -
Simón Ávalos Chacarita Juniors アクティブ 71 / 107 40% 1 08.12.2026 -
Jonás Ravano Colón アクティブ 89 / 92 40% 1 04.12.2026 -
Omar Robles Jaguares アクティブ 80 / 61 40% 1 04.12.2026 -
Luca Castillo Ferro Carril Oeste アクティブ 93 / 94 40% 1 02.12.2026 -
Thiago Yossen Madryn アクティブ 85 / 115 40% 1 02.12.2026 -
Santiago Asprilla Envigado アクティブ 62 / 79 40% 1 02.12.2026 -
Lucas Wolfert Racing Club アクティブ 60 / 98 40% 1 28.11.2026 -
Elías Viala Tristán Suárez アクティブ 67 / 104 40% 1 28.11.2026 -
Jayden Smith Wellington Phoenix アクティブ 75 / 70 40% 4 27.11.2026 -
Federico Ricca Belgrano アクティブ 115 / 128 40% 1 27.11.2026 -
Freddy Molina Union Magdalena アクティブ 115 / 86 40% 3 25.11.2026 -
Máximo Leguizamón Tigre アクティブ 105 / 87 40% 1 25.11.2026 -
Máximo Suazo Central Norte アクティブ 66 / 80 40% 1 25.11.2026 -
Luigi Cendales Godoy Cruz アクティブ 68 / 94 40% 2 23.11.2026 -
Joaquín Obdrzalek Madryn アクティブ 106 / 92 40% 2 22.11.2026 -
Felipe Coronel All Boys アクティブ 88 / 90 40% 1 22.11.2026 -
Bautista Mamousse Chacarita Juniors アクティブ 100 / 88 40% 1 21.11.2026 -
José Calzadilla Portuguesa アクティブ 92 / 75 40% 1 20.11.2026 -
Jeyson Rojas Colo-Colo アクティブ 99 / 127 40% 1 20.11.2026 -
Joaquín Giudice Platense アクティブ 69 / 103 40% 1 18.11.2026 -
Nahuel Frascone Arsenal アクティブ 82 / 72 40% 2 17.11.2026 -
Ignacio Ratti Artigas アクティブ 67 / 78 40% 1 16.11.2026 -
Lautaro Lobo San Telmo アクティブ 102 / 88 40% 1 16.11.2026 -
Hugo Gaona Sportivo Luqueno アクティブ 83 / 75 40% 1 12.11.2026 -
Ignacio Cardozo Vélez アクティブ 87 / 108 40% 1 12.11.2026 -
Matías González Penarol アクティブ 83 / 107 40% 2 09.11.2026 -
Nicolás Goldstein Ferro Carril Oeste アクティブ 91 / 82 40% 1 09.11.2026 -
Valentín Reyes Ferro Carril Oeste アクティブ 103 / 81 40% 1 08.11.2026 -
Franco Sivetti Gimnasia y Tiro アクティブ 116 / 100 40% 2 07.11.2026 -
Facundo Pérez Juventud アクティブ 118 / 97 40% 1 06.11.2026 -
Carlos Mosquera Marmolejo Independiente Medellin アクティブ 103 / 92 40% 1 05.11.2026 -
Agustín Díaz Gimnasia y Esgrima アクティブ 105 / 100 40% 1 02.11.2026 -
Ulises Aguado Estudiantes アクティブ 79 / 105 40% 1 02.11.2026 -
Fernando Barrios Unión de Santa Fe アクティブ 76 / 87 40% 1 01.11.2026 -
Nicolás Linares Gimnasia y Esgrima アクティブ 120 / 96 40% 3 30.10.2026 -
Gino Rizzo Rosario Central アクティブ 71 / 60 40% 1 30.10.2026 -
Maximiliano Zelaya Miramar Misiones アクティブ 101 / 97 40% 2 29.10.2026 -
Uriel Ramos Defensa y Justicia アクティブ 63 / 99 40% 1 29.10.2026 -
Alejandro Rojo Deportivo Cali アクティブ 71 / 76 40% 1 29.10.2026 -
Enzo Arrubia Almirante Brown アクティブ 93 / 100 40% 1 26.10.2026 -
Andrés Macea Deportivo Pereira アクティブ 76 / 109 40% 1 26.10.2026 -
Federico Peralta San Telmo アクティブ 105 / 77 40% 1 22.10.2026 -
Bruno Rizzi Estudiantes アクティブ 89 / 90 40% 1 22.10.2026 -
José Mosquera Real Cartagena アクティブ 66 / 99 40% 1 22.10.2026 -
Julián Marchio San Martín SJ アクティブ 83 / 97 40% 3 20.10.2026 -
Valentino Massi Sarmiento アクティブ 101 / 124 40% 1 19.10.2026 -
Lautaro Fernández Rosario Central アクティブ 101 / 115 40% 1 18.10.2026 -
Maximiliano Padilla Gimnasia y Esgrima アクティブ 106 / 122 40% 2 17.10.2026 -
Neffer Díaz Independiente Medellin アクティブ 70 / 88 40% 2 14.10.2026 -
Nicolás Canteros Talleres アクティブ 56 / 86 40% 1 12.10.2026 -
Diego Mercado San Martín SJ アクティブ 110 / 107 40% 2 10.10.2026 -
José Duarte Tacuarembo アクティブ 106 / 99 40% 1 10.10.2026 -
Gonzalo Escudero Racing Club アクティブ 107 / 115 40% 1 10.10.2026 -
Franco Capponi Aldosivi アクティブ 81 / 90 40% 1 09.10.2026 -
Tiago Glattli Penarol アクティブ 100 / 65 40% 2 08.10.2026 -
Juan Galetto Gimnasia y Tiro アクティブ 127 / 127 40% 2 08.10.2026 -
Martín Rodríguez Mitre アクティブ 112 / 120 40% 2 06.10.2026 -
Kayne Razmovski Wellington Phoenix アクティブ 63 / 76 40% 1 06.10.2026 -
Elías Villar Nacional アクティブ 89 / 79 40% 1 05.10.2026 -
Fabricio Díaz San Lorenzo アクティブ 95 / 103 40% 1 05.10.2026 -
Kevin Chacón Depor アクティブ 101 / 110 40% 1 04.10.2026 -
Jorge Georgieff Estudiantes アクティブ 71 / 91 40% 1 02.10.2026 -
Francisco Gerometta Godoy Cruz アクティブ 120 / 124 40% 1 02.10.2026 -
Victor Murillo La Equidad アクティブ 58 / 62 40% 1 02.10.2026 -
Kevin Romero Racing アクティブ 61 / 105 40% 1 30.09.2026 -
Luis Mateus Atletico Bucaramanga アクティブ 81 / 66 40% 1 30.09.2026 -
Tobías Sánchez San Telmo アクティブ 90 / 108 40% 1 28.09.2026 -
Yeison Murillo Deportivo Riestra アクティブ 90 / 104 40% 1 27.09.2026 -
Armando Rivas Zamora アクティブ 107 / 71 40% 1 26.09.2026 -
Felipe Varela Vélez アクティブ 58 / 84 40% 1 26.09.2026 -
Martín Úbeda Gimnasia y Esgrima アクティブ 114 / 85 40% 1 26.09.2026 -
Diego Cheuquepal Racing アクティブ 115 / 121 40% 2 25.09.2026 -
León Mancini San Lorenzo アクティブ 63 / 93 40% 1 22.09.2026 -
Alex Baigorria Defensores Unidos アクティブ 100 / 81 40% 1 18.09.2026 -
Agustín Heredia Boca Juniors アクティブ 93 / 115 40% 1 17.09.2026 -
Jeremías Blanco Los Andes アクティブ 77 / 71 40% 1 17.09.2026 -
Mauricio Ponce Quilmes アクティブ 76 / 71 40% 1 16.09.2026 -
Luciano Vallejo Atlético Tucumán アクティブ 78 / 83 40% 3 15.09.2026 -
Mateo Rodríguez Quilmes アクティブ 51 / 95 40% 1 14.09.2026 -
Francisco Ginella Albion アクティブ 108 / 96 40% 3 13.09.2026 -
Lautaro Duarte Deportivo Riestra アクティブ 113 / 74 40% 1 11.09.2026 -
Juan Agustín Lorenzo Defensores Unidos アクティブ 98 / 114 40% 1 11.09.2026 -
Tahiel González Defensa y Justicia アクティブ 89 / 85 40% 1 08.09.2026 -
Matías De Felippe Atlanta アクティブ 88 / 105 40% 1 08.09.2026 -
Thiago Sabella Banfield アクティブ 65 / 94 40% 1 07.09.2026 -
Lucas Arzamendia Atenas アクティブ 114 / 101 40% 2 06.09.2026 -
Santiago Acosta Chacarita Juniors アクティブ 66 / 101 40% 1 31.08.2026 -
Freddy Muriel Cortulua アクティブ 45 / 49 40% 1 26.08.2026 -
Kevin Lezcano Guarani アクティブ 69 / 68 40% 1 24.08.2026 -
Thiago Nahuel Independiente アクティブ 80 / 95 40% 1 20.08.2026 -
Ignacio Gentile San Telmo アクティブ 103 / 115 40% 2 18.08.2026 -
Francisco Ballesteros Gimnasia La Plata アクティブ 86 / 66 40% 1 18.08.2026 -
Edgar Páez Cerro Porteno アクティブ 72 / 80 40% 1 17.08.2026 -
Beltran Aladro Vélez アクティブ 104 / 70 40% 1 17.08.2026 -
Cristhofer Mesías Universidad de Concepcion アクティブ 119 / 87 40% 1 16.08.2026 -
Santiago Pérez Tigre アクティブ 93 / 84 40% 1 15.08.2026 -
Jesús Hakanson Barracas Central アクティブ 104 / 69 40% 1 15.08.2026 -
Enzo Meirelles Wanderers アクティブ 70 / 57 40% 1 15.08.2026 -
Mateo Rivas Independiente Medellin アクティブ 74 / 80 40% 1 13.08.2026 -
Santiago Martínez Deportivo Cali アクティブ 77 / 99 40% 1 10.08.2026 -
Lautaro Gaitán Colón アクティブ 102 / 85 40% 1 10.08.2026 -
Álbaro Polo Portuguesa アクティブ 63 / 103 40% 1 08.08.2026 -
Ciro Sueldo Talleres アクティブ 103 / 108 40% 1 08.08.2026 -
Santiago Filippini Estudiantes アクティブ 92 / 83 40% 1 08.08.2026 -
Gaspar Padilla Gimnasia y Esgrima アクティブ 66 / 78 40% 1 05.08.2026 -
Jano Franco Independiente Rivadavia アクティブ 110 / 94 40% 1 04.08.2026 -
Joaquín Nazar Maipú アクティブ 100 / 67 40% 1 03.08.2026 -
Thomas Rearte Atlético Tucumán アクティブ 84 / 83 40% 1 03.08.2026 -
Jeison Angulo Santa Fe アクティブ 108 / 136 40% 1 02.08.2026 -